• en Belgique
  • Liste des pays
  • À 7 jours
  • Température de l'eau
  • Carte satellitaire
  • Carte météo
  • Widgets météo
  • user-avatar
    Se connecter

    Météo par heure à Krasnoglinnyy

    Ce jour, 19 Octobre, Vendredi

    Heure Température Précipitation Vent Pression Humidité
    00:00 0°C° 0 mm 1 m/s 750 mmHg 78%
    01:00 +1°C° 0 mm 1 m/s 750 mmHg 79%
    02:00 -1°C° 0.1 mm 2 m/s 749 mmHg 80%
    03:00 -1°C° 0.1 mm 2 m/s 749 mmHg 81%
    04:00 +1°C° 0 mm 2 m/s 748 mmHg 83%
    05:00 +1°C° 0.1 mm 2 m/s 748 mmHg 85%
    06:00 +1°C° 0.1 mm 2 m/s 747 mmHg 87%
    07:00 +1°C° 0.1 mm 2 m/s 747 mmHg 89%
    08:00 +2°C° 0 mm 2 m/s 747 mmHg 88%
    09:00 +3°C° 0 mm 2 m/s 746 mmHg 86%
    10:00 +4°C° 0 mm 2 m/s 746 mmHg 84%
    11:00 +5°C° 0 mm 2 m/s 746 mmHg 83%
    12:00 +5°C° 0 mm 2 m/s 746 mmHg 82%
    13:00 +6°C° 0 mm 2 m/s 746 mmHg 81%
    14:00 +6°C° 0 mm 2 m/s 745 mmHg 85%
    15:00 +6°C° 0 mm 2 m/s 745 mmHg 89%
    16:00 +5°C° 0 mm 2 m/s 745 mmHg 93%
    17:00 +5°C° 0.3 mm 2 m/s 745 mmHg 93%
    18:00 +5°C° 0.3 mm 3 m/s 744 mmHg 93%
    19:00 +5°C° 0.3 mm 3 m/s 744 mmHg 93%
    20:00 +6°C° 0.5 mm 4 m/s 743 mmHg 92%
    21:00 +6°C° 0.5 mm 4 m/s 743 mmHg 91%
    22:00 +7°C° 0.5 mm 4 m/s 742 mmHg 90%
    23:00 +7°C° 0 mm 4 m/s 742 mmHg 90%

    Demain, 20 Octobre, Samedi

    Heure Température Précipitation Vent Pression Humidité
    00:00 +7°C° 0 mm 3 m/s 742 mmHg 90%
    01:00 +7°C° 0 mm 3 m/s 742 mmHg 90%
    02:00 +5°C° 0 mm 3 m/s 742 mmHg 90%
    03:00 +5°C° 0 mm 3 m/s 742 mmHg 90%
    04:00 +4°C° 0 mm 3 m/s 742 mmHg 90%
    05:00 +4°C° 0 mm 3 m/s 742 mmHg 87%
    06:00 +4°C° 0 mm 3 m/s 742 mmHg 85%
    07:00 +4°C° 0 mm 3 m/s 742 mmHg 83%
    08:00 +5°C° 0 mm 4 m/s 742 mmHg 78%
    09:00 +5°C° 0 mm 4 m/s 742 mmHg 73%
    10:00 +6°C° 0 mm 5 m/s 742 mmHg 69%
    11:00 +6°C° 0 mm 5 m/s 742 mmHg 68%
    12:00 +6°C° 0 mm 5 m/s 742 mmHg 68%
    13:00 +6°C° 0 mm 4 m/s 742 mmHg 67%
    14:00 +6°C° 0.1 mm 4 m/s 743 mmHg 70%
    15:00 +5°C° 0.1 mm 4 m/s 743 mmHg 72%
    16:00 +5°C° 0.1 mm 3 m/s 743 mmHg 75%
    17:00 +4°C° 0.2 mm 3 m/s 743 mmHg 76%
    18:00 +4°C° 0.2 mm 3 m/s 744 mmHg 77%
    19:00 +3°C° 0.2 mm 3 m/s 744 mmHg 79%
    20:00 +2°C° 0.1 mm 3 m/s 745 mmHg 79%
    21:00 +2°C° 0.1 mm 3 m/s 745 mmHg 80%
    22:00 +1°C° 0.1 mm 3 m/s 745 mmHg 81%
    23:00 +1°C° 0 mm 3 m/s 745 mmHg 81%

    Après-demain, 21 Octobre, Dimanche

    Heure Température Précipitation Vent Pression Humidité
    00:00 0°C° 0 mm 3 m/s 746 mmHg 80%
    01:00 0°C° 0 mm 3 m/s 746 mmHg 80%
    02:00 -1°C° 0 mm 3 m/s 747 mmHg 81%
    03:00 -1°C° 0 mm 3 m/s 747 mmHg 81%
    04:00 -2°C° 0 mm 3 m/s 748 mmHg 82%
    05:00 -2°C° 0 mm 3 m/s 748 mmHg 81%
    06:00 -2°C° 0 mm 3 m/s 749 mmHg 81%
    07:00 -2°C° 0 mm 3 m/s 749 mmHg 80%
    08:00 -3°C° 0 mm 4 m/s 749 mmHg 76%
    09:00 -2°C° 0 mm 4 m/s 750 mmHg 72%
    10:00 -2°C° 0 mm 4 m/s 750 mmHg 67%
    11:00 -1°C° 0 mm 4 m/s 751 mmHg 66%
    12:00 -1°C° 0 mm 4 m/s 751 mmHg 65%
    13:00 -1°C° 0 mm 4 m/s 752 mmHg 64%
    14:00 -1°C° 0 mm 4 m/s 752 mmHg 65%
    15:00 -1°C° 0 mm 4 m/s 753 mmHg 66%
    16:00 0°C° 0 mm 3 m/s 753 mmHg 68%
    17:00 -1°C° 0 mm 3 m/s 754 mmHg 70%
    18:00 -1°C° 0 mm 3 m/s 754 mmHg 72%
    19:00 -2°C° 0 mm 3 m/s 755 mmHg 74%
    20:00 -2°C° 0 mm 3 m/s 755 mmHg 75%
    21:00 -2°C° 0 mm 3 m/s 756 mmHg 76%
    22:00 -2°C° 0 mm 3 m/s 756 mmHg 77%
    23:00 -2°C° 0 mm 3 m/s 756 mmHg 77%

    22 Octobre, Lundi

    Heure Température Précipitation Vent Pression Humidité
    00:00 -4°C° 0 mm 3 m/s 757 mmHg 77%
    01:00 -4°C° 0 mm 3 m/s 757 mmHg 77%
    02:00 -3°C° 0 mm 2 m/s 757 mmHg 78%
    03:00 -4°C° 0 mm 2 m/s 758 mmHg 80%
    04:00 -4°C° 0 mm 2 m/s 758 mmHg 81%
    05:00 -4°C° 0 mm 2 m/s 758 mmHg 81%
    06:00 -4°C° 0 mm 2 m/s 759 mmHg 80%
    07:00 -4°C° 0 mm 2 m/s 759 mmHg 80%
    08:00 -3°C° 0 mm 2 m/s 759 mmHg 73%
    09:00 -2°C° 0 mm 2 m/s 759 mmHg 67%
    10:00 -1°C° 0 mm 2 m/s 759 mmHg 60%
    11:00 +1°C° 0 mm 2 m/s 759 mmHg 57%
    12:00 +2°C° 0 mm 2 m/s 758 mmHg 53%
    13:00 +2°C° 0 mm 3 m/s 758 mmHg 50%
    14:00 +2°C° 0 mm 2 m/s 758 mmHg 54%
    15:00 +1°C° 0 mm 2 m/s 758 mmHg 58%
    16:00 +1°C° 0 mm 2 m/s 758 mmHg 62%
    17:00 +1°C° 0 mm 2 m/s 757 mmHg 64%
    18:00 -1°C° 0 mm 3 m/s 757 mmHg 66%
    19:00 -1°C° 0 mm 3 m/s 756 mmHg 68%
    20:00 0°C° 0 mm 3 m/s 756 mmHg 69%
    21:00 -1°C° 0 mm 4 m/s 755 mmHg 71%
    22:00 -1°C° 0 mm 4 m/s 755 mmHg 73%
    23:00 0°C° 0 mm 4 m/s 754 mmHg 73%

    23 Octobre, Mardi

    Heure Température Précipitation Vent Pression Humidité
    00:00 0°C° 0 mm 4 m/s 753 mmHg 73%
    01:00 0°C° 0 mm 4 m/s 753 mmHg 73%
    02:00 0°C° 0 mm 4 m/s 752 mmHg 73%
    03:00 +1°C° 0 mm 5 m/s 752 mmHg 73%
    04:00 +1°C° 0 mm 5 m/s 751 mmHg 73%
    05:00 +1°C° 0 mm 5 m/s 751 mmHg 73%
    06:00 +1°C° 0 mm 5 m/s 750 mmHg 74%
    07:00 +1°C° 0 mm 5 m/s 750 mmHg 74%
    08:00 +1°C° 0 mm 5 m/s 750 mmHg 71%
    09:00 +2°C° 0 mm 5 m/s 749 mmHg 69%
    10:00 +2°C° 0 mm 5 m/s 749 mmHg 67%
    11:00 +3°C° 0 mm 5 m/s 749 mmHg 66%
    12:00 +3°C° 0 mm 5 m/s 749 mmHg 64%
    13:00 +5°C° 0 mm 5 m/s 749 mmHg 63%
    14:00 +3°C° 0 mm 5 m/s 749 mmHg 66%
    15:00 +4°C° 0 mm 4 m/s 749 mmHg 69%
    16:00 +3°C° 0 mm 3 m/s 749 mmHg 71%
    17:00 +3°C° 0 mm 3 m/s 749 mmHg 75%
    18:00 +1°C° 0 mm 4 m/s 749 mmHg 78%
    19:00 +1°C° 0 mm 4 m/s 749 mmHg 81%
    20:00 +2°C° 0 mm 3 m/s 749 mmHg 82%
    21:00 +2°C° 0 mm 3 m/s 749 mmHg 84%
    22:00 +3°C° 0 mm 3 m/s 749 mmHg 85%
    23:00 +3°C° 0.1 mm 3 m/s 749 mmHg 86%

    24 Octobre, Mercredi

    Heure Température Précipitation Vent Pression Humidité
    00:00 +3°C° 0.1 mm 3 m/s 749 mmHg 87%
    01:00 +3°C° 0.1 mm 3 m/s 749 mmHg 88%
    02:00 +3°C° 0.3 mm 3 m/s 748 mmHg 87%
    03:00 +3°C° 0.3 mm 3 m/s 748 mmHg 86%
    04:00 +3°C° 0.3 mm 3 m/s 748 mmHg 85%
    05:00 +3°C° 0.3 mm 4 m/s 748 mmHg 83%
    06:00 +3°C° 0.3 mm 4 m/s 747 mmHg 81%
    07:00 +3°C° 0.3 mm 4 m/s 747 mmHg 79%
    08:00 +3°C° 0.1 mm 4 m/s 746 mmHg 77%
    09:00 +4°C° 0.1 mm 4 m/s 746 mmHg 74%
    10:00 +3°C° 0.1 mm 5 m/s 745 mmHg 72%
    11:00 +5°C° 0 mm 5 m/s 745 mmHg 71%
    12:00 +6°C° 0 mm 5 m/s 745 mmHg 70%
    13:00 +7°C° 0 mm 5 m/s 744 mmHg 69%
    14:00 +7°C° 0 mm 5 m/s 744 mmHg 72%
    15:00 +7°C° 0 mm 5 m/s 744 mmHg 75%
    16:00 +7°C° 0 mm 4 m/s 744 mmHg 78%
    17:00 +7°C° 0 mm 4 m/s 744 mmHg 79%
    18:00 +7°C° 0 mm 4 m/s 744 mmHg 81%
    19:00 +7°C° 0 mm 4 m/s 744 mmHg 82%
    20:00 +6°C° 0 mm 4 m/s 745 mmHg 84%
    21:00 +6°C° 0 mm 4 m/s 745 mmHg 86%
    22:00 +5°C° 0 mm 3 m/s 745 mmHg 88%
    23:00 +5°C° 0 mm 3 m/s 745 mmHg 89%
    Voir plus